| time (UTC) | temp F | wind direction | speed MPH | gust MPH | rain 1hr in | rain 24hr in | rain mn in | humidity % | barometer mb |
| 20260506230006 | 81 | 13 | 0.0 | 0.0 | 0.00 | 0.08 | 0.08 | 90 | 1008.5 |
| 20260506224504 | 81 | 13 | 0.0 | 0.0 | 0.00 | 0.08 | 0.08 | 89 | 1008.5 |
| 20260506223004 | 82 | 13 | 0.0 | 0.0 | 0.00 | 0.08 | 0.08 | 87 | 1008.3 |
| 20260506221505 | 82 | 13 | 0.0 | 0.0 | 0.00 | 0.08 | 0.08 | 87 | 1008.2 |
| 20260506220003 | 82 | 13 | 0.0 | 0.0 | 0.00 | 0.08 | 0.08 | 86 | 1008.1 |
| 20260506214502 | 82 | 342 | 0.0 | 0.0 | 0.00 | 0.08 | 0.08 | 86 | 1008.3 |
| 20260506213002 | 82 | 342 | 0.0 | 0.0 | 0.00 | 0.08 | 0.08 | 87 | 1008.4 |
| 20260506211600 | 81 | 4 | 0.0 | 0.0 | 0.00 | 0.08 | 0.08 | 89 | 1008.2 |
| 20260506210058 | 81 | 360 | 0.0 | 0.0 | 0.00 | 0.08 | 0.08 | 90 | 1008.6 |
| 20260506204600 | 81 | 360 | 0.0 | 0.0 | 0.00 | 0.08 | 0.08 | 89 | 1008.6 |
| 20260506203057 | 81 | 17 | 0.0 | 0.0 | 0.00 | 0.08 | 0.08 | 92 | 1008.7 |
| 20260506201555 | 80 | 8 | 0.0 | 0.0 | 0.00 | 0.08 | 0.08 | 93 | 1008.9 |
| 20260506200056 | 80 | 8 | 0.0 | 0.0 | 0.00 | 0.08 | 0.08 | 93 | 1009.1 |
| 20260506194519 | 80 | 8 | 0.0 | 0.0 | 0.00 | 0.08 | 0.08 | 92 | 1009.0 |
| 20260506193057 | 80 | 18 | 0.0 | 0.0 | 0.00 | 0.08 | 0.08 | 92 | 1009.1 |
| 20260506191559 | 80 | 352 | 0.0 | 0.0 | 0.00 | 0.08 | 0.08 | 93 | 1009.3 |
| 20260506190053 | 79 | 352 | 0.0 | 0.0 | 0.00 | 0.08 | 0.08 | 95 | 1009.5 |
| 20260506184551 | 78 | 13 | 0.0 | 0.0 | 0.01 | 0.08 | 0.08 | 95 | 1009.6 |
| 20260506183100 | 78 | 1 | 0.0 | 0.0 | 0.05 | 0.08 | 0.08 | 95 | 1009.8 |
| 20260506181601 | 78 | 97 | 0.0 | 0.0 | 0.08 | 0.08 | 0.08 | 95 | 1010.2 |
| 20260506180048 | 78 | 97 | 0.0 | 0.0 | 0.08 | 0.08 | 0.08 | 94 | 1010.6 |
| 20260506174548 | 78 | 97 | 0.0 | 0.0 | 0.07 | 0.07 | 0.07 | 93 | 1010.8 |
| 20260506173112 | 78 | 97 | 0.0 | 0.0 | 0.03 | 0.03 | 0.03 | 91 | 1011.1 |
| 20260506171546 | 79 | 97 | 0.0 | 0.0 | 0.00 | 0.00 | 0.00 | 89 | 1011.0 |
| 20260506164544 | 80 | 97 | 0.0 | 0.0 | 0.00 | 0.00 | 0.00 | 88 | 1011.1 |
| 20260506163051 | 80 | 152 | 0.0 | 0.0 | 0.00 | 0.00 | 0.00 | 89 | 1010.8 |
| 20260506161540 | 79 | 40 | 0.0 | 0.0 | 0.00 | 0.00 | 0.00 | 90 | 1010.6 |
| 20260506160040 | 78 | 40 | 0.0 | 0.0 | 0.00 | 0.00 | 0.00 | 90 | 1010.5 |
| 20260506154542 | 78 | 40 | 0.0 | 0.0 | 0.00 | 0.00 | 0.00 | 90 | 1010.5 |
| 20260506153036 | 78 | 101 | 0.0 | 0.0 | 0.00 | 0.00 | 0.00 | 89 | 1010.4 |
| 20260506151533 | 78 | 81 | 0.0 | 0.0 | 0.00 | 0.00 | 0.00 | 90 | 1010.5 |
| 20260506150030 | 78 | 81 | 0.0 | 0.0 | 0.00 | 0.00 | 0.00 | 91 | 1010.1 |
| 20260506144528 | 77 | 234 | 0.0 | 0.0 | 0.00 | 0.00 | 0.00 | 92 | 1010.1 |
| 20260506143029 | 77 | 342 | 0.0 | 0.0 | 0.00 | 0.00 | 0.00 | 92 | 1009.8 |
| 20260506141527 | 77 | 196 | 0.0 | 0.0 | 0.00 | 0.00 | 0.00 | 93 | 1009.9 |
| 20260506140030 | 76 | 192 | 0.0 | 0.0 | 0.00 | 0.00 | 0.00 | 93 | 1009.9 |
| 20260506134524 | 76 | 192 | 0.0 | 0.0 | 0.00 | 0.00 | 0.00 | 94 | 1010.0 |
| 20260506133024 | 76 | 177 | 0.0 | 0.0 | 0.00 | 0.00 | 0.00 | 94 | 1010.2 |
| 20260506131525 | 75 | 177 | 0.0 | 0.0 | 0.00 | 0.00 | 0.00 | 94 | 1010.1 |
| 20260506130024 | 75 | 177 | 0.0 | 0.0 | 0.00 | 0.00 | 0.00 | 94 | 1009.9 |
| 20260506124521 | 75 | 177 | 0.0 | 0.0 | 0.00 | 0.00 | 0.00 | 94 | 1009.8 |
| 20260506123020 | 75 | 177 | 0.0 | 0.0 | 0.00 | 0.00 | 0.00 | 94 | 1009.7 |
| 20260506121518 | 75 | 177 | 0.0 | 0.0 | 0.00 | 0.00 | 0.00 | 94 | 1009.7 |
| 20260506120018 | 74 | 177 | 0.0 | 0.0 | 0.00 | 0.00 | 0.00 | 94 | 1009.6 |
| 20260506114521 | 74 | 177 | 0.0 | 0.0 | 0.00 | 0.00 | 0.00 | 94 | 1009.4 |
| 20260506113015 | 74 | 177 | 0.0 | 0.0 | 0.00 | 0.00 | 0.00 | 93 | 1009.2 |
| 20260506111514 | 74 | 177 | 0.0 | 0.0 | 0.00 | 0.00 | 0.00 | 93 | 1009.2 |
| 20260506110015 | 74 | 177 | 0.0 | 0.0 | 0.00 | 0.00 | 0.00 | 93 | 1008.8 |
| 20260506104533 | 75 | 177 | 0.0 | 0.0 | 0.00 | 0.00 | 0.00 | 93 | 1008.6 |
| 20260506103012 | 75 | 177 | 0.0 | 0.0 | 0.00 | 0.00 | 0.00 | 92 | 1008.6 |
| 20260506101511 | 75 | 177 | 0.0 | 0.0 | 0.00 | 0.00 | 0.00 | 92 | 1008.6 |
| 20260506100009 | 75 | 180 | 0.0 | 0.0 | 0.00 | 0.00 | 0.00 | 91 | 1008.6 |
| 20260506094509 | 76 | 173 | 0.0 | 1.0 | 0.00 | 0.00 | 0.00 | 91 | 1008.2 |
| 20260506093007 | 76 | 149 | 0.0 | 2.0 | 0.00 | 0.00 | 0.00 | 91 | 1008.2 |
| 20260506091506 | 76 | 149 | 0.0 | 2.0 | 0.00 | 0.00 | 0.00 | 91 | 1008.2 |
| 20260506090005 | 76 | 173 | 0.0 | 2.0 | 0.00 | 0.00 | 0.00 | 91 | 1008.1 |
| 20260506084506 | 76 | 177 | 0.0 | 2.0 | 0.00 | 0.00 | 0.00 | 91 | 1007.9 |
| 20260506083006 | 76 | 129 | 0.0 | 0.0 | 0.00 | 0.00 | 0.00 | 91 | 1008.1 |
| 20260506081501 | 76 | 146 | 0.0 | 2.0 | 0.00 | 0.00 | 0.00 | 91 | 1008.2 |
| 20260506080114 | 76 | 146 | 0.0 | 0.0 | 0.00 | 0.00 | 0.00 | 91 | 1008.5 |
| 20260506073056 | 76 | 110 | 0.0 | 0.0 | 0.00 | 0.00 | 0.00 | 90 | 1008.8 |
| 20260506071615 | 76 | 154 | 0.0 | 0.0 | 0.00 | 0.00 | 0.00 | 90 | 1009.2 |
| 20260506061551 | 77 | 173 | 0.0 | 1.0 | 0.00 | 0.00 | 0.00 | 90 | 1009.2 |
| 20260506044550 | 77 | 164 | 0.0 | 1.0 | 0.00 | 0.00 | 0.00 | 87 | 1009.1 |
| 20260506043052 | 77 | 159 | 0.0 | 2.0 | 0.00 | 0.00 | 0.00 | 87 | 1009.1 |
| 20260506041546 | 78 | 159 | 0.0 | 2.0 | 0.00 | 0.00 | 0.00 | 87 | 1009.3 |
| 20260506040049 | 77 | 148 | 0.0 | 0.0 | 0.00 | 0.00 | 0.00 | 87 | 1009.0 |
| 20260506034543 | 78 | 146 | 0.0 | 0.0 | 0.00 | 0.00 | 0.00 | 86 | 1008.9 |
| 20260506033043 | 78 | 159 | 0.0 | 2.0 | 0.00 | 0.00 | 0.00 | 86 | 1008.7 |
| 20260506031541 | 78 | 164 | 0.0 | 0.0 | 0.00 | 0.00 | 0.00 | 86 | 1008.7 |
| 20260506030041 | 78 | 173 | 0.0 | 0.0 | 0.00 | 0.00 | 0.00 | 86 | 1008.5 |
| 20260506024545 | 78 | 173 | 0.0 | 0.0 | 0.00 | 0.00 | 0.00 | 85 | 1008.3 |
| 20260506023040 | 78 | 149 | 0.0 | 0.0 | 0.00 | 0.00 | 0.00 | 85 | 1008.1 |
| 20260506021552 | 78 | 148 | 0.0 | 2.0 | 0.00 | 0.00 | 0.00 | 84 | 1007.8 |
| 20260506020038 | 0 | 173 | 0.0 | 2.0 | 0.00 | 0.00 | 0.00 | 1007.6 | |
| 20260506014534 | 0 | 128 | 0.0 | 1.0 | 0.00 | 0.00 | 0.00 | 1007.4 | |
| 20260506013031 | 0 | 169 | 0.0 | 1.0 | 0.00 | 0.00 | 0.00 | 1007.2 | |
| 20260506011532 | 0 | 164 | 0.0 | 2.0 | 0.00 | 0.00 | 0.00 | 1007.1 | |
| 20260506010043 | 0 | 155 | 0.0 | 2.0 | 0.00 | 0.00 | 0.00 | 1006.9 | |
| 20260506004530 | 0 | 138 | 0.0 | 2.0 | 0.00 | 0.00 | 0.00 | 1006.6 | |
| 20260506003030 | 0 | 159 | 0.0 | 2.0 | 0.00 | 0.00 | 0.00 | 1006.6 | |
| 20260506001528 | 0 | 178 | 0.0 | 0.0 | 0.00 | 0.00 | 0.00 | 1006.6 | |
| 20260506000025 | 0 | 178 | 0.0 | 3.0 | 0.00 | 0.00 | 0.00 | 1006.5 | |
| 20260505234522 | 0 | 133 | 0.0 | 2.0 | 0.00 | 0.00 | 0.00 | 1006.6 | |
| 20260505233017 | 0 | 192 | 0.0 | 0.0 | 0.00 | 0.00 | 0.00 | 1006.5 | |
| 20260505231523 | 0 | 154 | 0.0 | 0.0 | 0.00 | 0.00 | 0.00 | 1006.6 |